contact:dominique.lefevre@mio.osupytheas.fr, maurice.libes@osupytheas.fr, didier.mallarino@osupytheas.fr
Project:EMSO http://www.emso-fr.org/EMSO-France
Depth: 2436.0 m
Title:EMSO Ligure Ouest : Data MII capteur AQUADOPP
Date,Latitude,Longitude,X_East,Y_North,Z_Up,Amplitude_X,Amplitude_Y,Amplitude_Z,Batterie,SoundSpeed,Heading,Pitch,Roll,Pressure,TIS,Speed,Direction
, degrees North, degrees East, m.s-1, m.s-1,m.s-1, 1, 1, 1, Volt, m.s-1, degree, degree, degree, dbar, degree_C, m.s-1, degree
2023-05-09T00:04:03,42.805,6.029,0.01,0.011,-0.042,102.0,102.0,102.0,13.3,1505.2,316.2,-0.8,1.8,2471.48,13.28,0.014,42.3
2023-05-09T00:07:03,42.805,6.029,0.045,0.002,-0.008,101.0,102.0,101.0,13.3,1505.2,328.7,-0.8,1.8,2471.487,13.28,0.045,87.5
2023-05-09T00:10:03,42.805,6.029,0.027,-0.014,-0.033,101.0,101.0,101.0,13.4,1505.2,327.0,-0.8,1.8,2471.456,13.28,0.03,117.4
2023-05-09T00:13:03,42.805,6.029,0.01,0.002,-0.022,101.0,102.0,101.0,13.4,1505.2,317.5,-0.8,1.8,2471.456,13.28,0.01,78.7
2023-05-09T00:16:03,42.805,6.029,0.03,-0.004,-0.035,102.0,102.0,101.0,13.4,1505.2,321.9,-0.8,1.8,2471.424,13.29,0.03,97.6
2023-05-09T00:19:03,42.805,6.029,0.046,-0.021,-0.007,102.0,102.0,101.0,13.4,1505.2,330.5,-0.7,1.8,2471.467,13.29,0.05,114.5
2023-05-09T00:22:03,42.805,6.029,0.025,0.002,-0.002,103.0,101.0,100.0,13.4,1505.2,324.5,-0.8,1.8,2471.419,13.29,0.025,85.4
2023-05-09T00:25:03,42.805,6.029,0.032,0.011,-0.02,103.0,103.0,101.0,13.4,1505.2,341.5,-0.8,1.8,2471.414,13.29,0.033,71.0
2023-05-09T00:28:03,42.805,6.029,0.015,-0.003,-0.015,102.0,101.0,101.0,13.4,1505.2,344.8,-0.8,1.8,2471.449,13.29,0.015,101.3
2023-05-09T00:31:03,42.805,6.029,0.041,-0.011,-0.038,103.0,102.0,101.0,13.4,1505.2,342.6,-0.8,1.8,2471.428,13.29,0.042,105.0
2023-05-09T00:34:03,42.805,6.029,0.027,0.0,-0.034,102.0,102.0,101.0,13.3,1505.2,321.7,-0.7,1.8,2471.435,13.29,0.026,90.0
2023-05-09T00:37:03,42.805,6.029,0.037,0.014,-0.013,101.0,102.0,101.0,13.3,1505.2,331.9,-0.8,1.8,2471.4,13.29,0.039,69.3
2023-05-09T00:40:03,42.805,6.029,0.049,0.011,-0.031,102.0,102.0,100.0,13.4,1505.2,328.5,-0.8,1.8,2471.42,13.29,0.05,77.3
2023-05-09T00:43:03,42.805,6.029,0.044,0.012,-0.039,101.0,103.0,101.0,13.4,1505.2,327.2,-0.7,1.8,2471.442,13.29,0.045,74.7
2023-05-09T00:46:03,42.805,6.029,0.019,0.009,-0.027,101.0,100.0,102.0,13.4,1505.2,318.0,-0.8,1.8,2471.377,13.29,0.021,64.7
2023-05-09T00:49:03,42.805,6.029,0.007,0.019,0.003,101.0,102.0,101.0,13.4,1505.2,325.7,-0.8,1.8,2471.447,13.29,0.02,20.2
2023-05-09T00:52:03,42.805,6.029,0.042,-0.013,-0.021,101.0,103.0,101.0,13.4,1505.2,327.4,-0.8,1.8,2471.376,13.29,0.043,107.2
2023-05-09T00:55:03,42.805,6.029,0.031,0.001,0.0,101.0,102.0,100.0,13.4,1505.2,323.2,-0.7,1.8,2471.433,13.29,0.031,88.2
2023-05-09T00:58:03,42.805,6.029,0.017,0.0,-0.044,101.0,101.0,100.0,13.4,1505.2,338.4,-0.8,1.8,2471.409,13.29,0.017,90.0
2023-05-09T01:04:03,42.805,6.029,0.031,-0.038,-0.059,104.0,104.0,102.0,13.4,1505.2,332.1,-0.8,1.8,2471.447,13.28,0.049,140.8
2023-05-09T01:07:02,42.805,6.029,0.025,0.012,-0.031,101.0,101.0,101.0,13.4,1505.2,328.1,-0.7,1.8,2471.422,13.28,0.027,64.4
2023-05-09T01:10:03,42.805,6.029,0.024,-0.005,-0.045,102.0,101.0,101.0,13.4,1505.2,323.4,-0.8,1.8,2471.426,13.28,0.024,101.8
2023-05-09T01:13:03,42.805,6.029,0.034,0.008,-0.027,102.0,100.0,102.0,13.4,1505.2,325.2,-0.7,1.8,2471.403,13.29,0.034,76.8
2023-05-09T01:16:03,42.805,6.029,0.035,-0.012,-0.012,102.0,102.0,100.0,13.4,1505.2,343.4,-0.8,1.8,2471.398,13.29,0.037,108.9
2023-05-09T01:19:03,42.805,6.029,-0.004,0.028,0.007,102.0,101.0,101.0,13.4,1505.2,317.1,-0.8,1.8,2471.419,13.29,0.028,351.9
2023-05-09T01:22:03,42.805,6.029,0.03,0.024,0.006,101.0,102.0,101.0,13.3,1505.2,334.4,-0.8,1.8,2471.408,13.29,0.038,51.3
2023-05-09T01:25:03,42.805,6.029,0.025,0.01,-0.011,101.0,103.0,100.0,13.3,1505.2,328.2,-0.7,1.8,2471.38,13.29,0.026,68.2
2023-05-09T01:28:03,42.805,6.029,0.031,0.036,0.002,101.0,102.0,101.0,13.4,1505.2,324.1,-0.8,1.8,2471.438,13.29,0.047,40.7
2023-05-09T01:31:03,42.805,6.029,0.047,-0.005,-0.05,103.0,101.0,101.0,13.4,1505.2,321.8,-0.8,1.8,2471.397,13.29,0.047,96.1
2023-05-09T01:34:03,42.805,6.029,0.031,0.005,-0.023,101.0,100.0,101.0,13.4,1505.2,324.4,-0.7,1.9,2471.351,13.29,0.031,80.8
2023-05-09T01:37:03,42.805,6.029,0.038,0.0,-0.005,102.0,102.0,101.0,13.4,1505.2,330.2,-0.7,1.8,2471.375,13.29,0.038,90.0
2023-05-09T01:40:03,42.805,6.029,0.017,0.014,0.002,100.0,101.0,102.0,13.4,1505.2,325.2,-0.8,1.8,2471.41,13.29,0.022,50.5
2023-05-09T01:43:03,42.805,6.029,0.027,0.003,-0.027,101.0,101.0,101.0,13.4,1505.2,345.7,-0.8,1.8,2471.425,13.29,0.027,83.7
2023-05-09T01:46:03,42.805,6.029,0.015,0.021,-0.021,101.0,102.0,101.0,13.4,1505.2,318.6,-0.8,1.8,2471.38,13.29,0.025,35.5
2023-05-09T01:49:03,42.805,6.029,0.02,0.007,0.017,100.0,101.0,102.0,13.3,1505.2,328.3,-0.8,1.8,2471.387,13.29,0.021,70.7
2023-05-09T01:52:03,42.805,6.029,0.012,-0.006,-0.061,102.0,100.0,101.0,13.3,1505.2,340.0,-0.7,1.8,2471.375,13.29,0.013,116.6
2023-05-09T01:55:03,42.805,6.029,0.018,0.008,-0.036,102.0,101.0,100.0,13.4,1505.2,322.5,-0.8,1.8,2471.396,13.29,0.019,66.0
2023-05-09T01:58:03,42.805,6.029,0.013,-0.014,-0.018,102.0,101.0,101.0,13.3,1505.2,325.2,-0.8,1.8,2471.376,13.29,0.019,137.1
2023-05-09T02:04:03,42.805,6.029,0.015,0.0,-0.03,100.0,101.0,102.0,13.3,1505.2,346.7,-0.7,1.8,2471.414,13.28,0.015,90.0
2023-05-09T02:07:03,42.805,6.029,0.048,0.008,-0.038,102.0,103.0,100.0,13.3,1505.2,316.9,-0.8,1.8,2471.413,13.28,0.048,80.5
2023-05-09T02:10:03,42.805,6.029,0.05,-0.01,-0.042,101.0,103.0,101.0,13.3,1505.2,323.1,-0.7,1.8,2471.418,13.28,0.05,101.3
2023-05-09T02:13:03,42.805,6.029,0.019,0.009,-0.004,101.0,102.0,100.0,13.4,1505.2,323.1,-0.8,1.8,2471.416,13.28,0.021,64.7
2023-05-09T02:16:03,42.805,6.029,0.022,0.0,-0.018,101.0,101.0,101.0,13.3,1505.2,344.9,-0.8,1.8,2471.377,13.29,0.022,90.0
2023-05-09T02:19:03,42.805,6.029,0.022,0.001,-0.014,102.0,102.0,100.0,13.4,1505.2,331.6,-0.7,1.8,2471.384,13.29,0.022,87.4
2023-05-09T02:22:03,42.805,6.029,0.024,-0.004,-0.024,102.0,100.0,101.0,13.4,1505.2,343.4,-0.8,1.8,2471.356,13.29,0.024,99.5
2023-05-09T02:25:03,42.805,6.029,0.037,0.013,-0.021,102.0,101.0,101.0,13.4,1505.2,316.9,-0.8,1.8,2471.381,13.29,0.039,70.6
2023-05-09T02:28:03,42.805,6.029,0.017,0.009,-0.014,103.0,101.0,101.0,13.4,1505.2,332.1,-0.8,1.8,2471.333,13.29,0.019,62.1
2023-05-09T02:31:03,42.805,6.029,0.018,0.0,-0.018,102.0,100.0,102.0,13.4,1505.2,336.9,-0.8,1.8,2471.341,13.29,0.018,90.0
2023-05-09T02:34:03,42.805,6.029,0.038,0.017,0.014,101.0,102.0,101.0,13.3,1505.2,322.5,-0.8,1.8,2471.354,13.29,0.041,65.9
2023-05-09T02:37:03,42.805,6.029,0.043,-0.001,-0.008,102.0,102.0,100.0,13.4,1505.2,342.3,-0.8,1.8,2471.386,13.29,0.043,91.3
2023-05-09T02:40:03,42.805,6.029,0.033,0.006,-0.008,102.0,102.0,101.0,13.3,1505.2,334.4,-0.8,1.8,2471.351,13.29,0.033,79.7
2023-05-09T02:43:03,42.805,6.029,0.04,-0.015,-0.047,101.0,103.0,101.0,13.4,1505.2,341.5,-0.8,1.8,2471.364,13.29,0.042,110.6
2023-05-09T02:46:03,42.805,6.029,0.02,0.008,-0.012,103.0,101.0,100.0,13.3,1505.2,320.6,-0.8,1.8,2471.345,13.29,0.021,68.2
2023-05-09T02:49:03,42.805,6.029,0.016,-0.023,-0.062,101.0,102.0,100.0,13.4,1505.2,336.1,-0.8,1.8,2471.346,13.29,0.028,145.2
2023-05-09T02:52:03,42.805,6.029,0.045,0.004,-0.027,101.0,101.0,101.0,13.4,1505.2,338.8,-0.8,1.8,2471.368,13.29,0.045,84.9
2023-05-09T02:55:03,42.805,6.029,0.02,-0.003,-0.025,103.0,102.0,101.0,13.4,1505.2,340.3,-0.7,1.8,2471.334,13.29,0.02,98.5
2023-05-09T02:58:03,42.805,6.029,0.032,0.01,-0.007,104.0,102.0,100.0,13.4,1505.2,334.9,-0.8,1.8,2471.307,13.29,0.033,72.6
2023-05-09T03:04:03,42.805,6.029,0.026,0.026,-0.019,102.0,102.0,100.0,13.4,1505.2,326.5,-0.7,1.8,2471.414,13.28,0.036,45.0
2023-05-09T03:07:03,42.805,6.029,0.03,0.019,-0.035,102.0,103.0,102.0,13.3,1505.2,318.0,-0.8,1.8,2471.397,13.28,0.035,57.7
2023-05-09T03:10:03,42.805,6.029,-0.006,0.016,-0.01,101.0,103.0,101.0,13.3,1505.2,331.4,-0.8,1.8,2471.375,13.29,0.017,339.4
2023-05-09T03:13:03,42.805,6.029,0.016,0.023,-0.033,102.0,102.0,101.0,13.4,1505.2,321.0,-0.8,1.8,2471.342,13.29,0.028,34.8
2023-05-09T03:16:03,42.805,6.029,0.021,0.006,-0.038,102.0,102.0,101.0,13.4,1505.2,328.7,-0.7,1.8,2471.352,13.29,0.021,74.1
2023-05-09T03:19:03,42.805,6.029,0.026,0.031,0.0,101.0,101.0,101.0,13.3,1505.2,341.9,-0.8,1.8,2471.33,13.29,0.04,40.0
2023-05-09T03:22:03,42.805,6.029,-0.011,0.047,0.025,101.0,102.0,102.0,13.3,1505.2,315.6,-0.8,1.8,2471.355,13.29,0.048,346.8
2023-05-09T03:25:03,42.805,6.029,0.007,0.014,-0.016,102.0,103.0,100.0,13.3,1505.2,325.7,-0.8,1.8,2471.344,13.29,0.015,26.6
2023-05-09T03:28:03,42.805,6.029,0.013,0.01,-0.047,102.0,102.0,101.0,13.4,1505.2,342.1,-0.7,1.8,2471.335,13.29,0.016,52.4
2023-05-09T03:31:03,42.805,6.029,0.034,0.009,0.018,102.0,101.0,102.0,13.4,1505.2,331.0,-0.8,1.8,2471.334,13.29,0.035,75.2
2023-05-09T03:34:03,42.805,6.029,0.026,0.017,-0.01,102.0,102.0,100.0,13.4,1505.2,319.4,-0.8,1.8,2471.345,13.29,0.031,56.8
2023-05-09T03:37:03,42.805,6.029,0.008,0.02,0.009,101.0,102.0,101.0,13.4,1505.2,324.6,-0.8,1.8,2471.331,13.29,0.021,21.8
2023-05-09T03:40:03,42.805,6.029,0.007,0.012,-0.024,101.0,102.0,101.0,13.4,1505.2,320.5,-0.8,1.9,2471.283,13.29,0.013,30.3
2023-05-09T03:43:03,42.805,6.029,0.015,-0.003,-0.023,102.0,103.0,101.0,13.4,1505.2,333.9,-0.8,1.8,2471.341,13.29,0.015,101.3
2023-05-09T03:46:03,42.805,6.029,0.02,0.022,-0.028,103.0,103.0,100.0,13.4,1505.2,330.1,-0.8,1.8,2471.299,13.29,0.029,42.3
2023-05-09T03:49:03,42.805,6.029,0.01,0.023,-0.018,100.0,104.0,100.0,13.3,1505.2,328.8,-0.8,1.8,2471.357,13.29,0.025,23.5
2023-05-09T03:52:03,42.805,6.029,0.03,0.0,-0.067,102.0,101.0,100.0,13.3,1505.2,319.9,-0.7,1.8,2471.328,13.29,0.03,90.0
2023-05-09T03:55:03,42.805,6.029,0.033,0.016,-0.025,102.0,102.0,101.0,13.4,1505.2,325.2,-0.8,1.8,2471.311,13.29,0.036,64.1
2023-05-09T03:58:03,42.805,6.029,0.02,0.047,0.02,101.0,103.0,100.0,13.4,1505.2,334.6,-0.8,1.8,2471.294,13.29,0.051,23.0
2023-05-09T04:04:03,42.805,6.029,0.005,-0.003,-0.026,102.0,103.0,100.0,13.4,1505.2,331.4,-0.8,1.9,2471.375,13.28,0.005,121.0
2023-05-09T04:07:03,42.805,6.029,0.024,0.041,-0.002,102.0,101.0,101.0,13.4,1505.2,330.1,-0.8,1.8,2471.351,13.28,0.047,30.3
2023-05-09T04:10:03,42.805,6.029,0.013,0.011,-0.051,102.0,102.0,100.0,13.4,1505.2,321.9,-0.8,1.8,2471.342,13.29,0.017,49.8
2023-05-09T04:13:03,42.805,6.029,0.0,0.031,-0.041,101.0,102.0,101.0,13.4,1505.2,322.7,-0.8,1.8,2471.315,13.29,0.03,0.0
2023-05-09T04:16:03,42.805,6.029,0.027,0.008,-0.013,102.0,103.0,100.0,13.4,1505.2,342.7,-0.8,1.8,2471.362,13.29,0.028,73.5
2023-05-09T04:19:03,42.805,6.029,0.025,0.009,-0.032,102.0,101.0,101.0,13.4,1505.2,319.1,-0.8,1.8,2471.338,13.29,0.026,70.2
2023-05-09T04:22:03,42.805,6.029,0.013,0.022,-0.026,101.0,104.0,100.0,13.4,1505.2,323.7,-0.8,1.8,2471.322,13.29,0.025,30.6
2023-05-09T04:25:03,42.805,6.029,0.033,0.03,0.0,102.0,103.0,100.0,13.4,1505.2,331.3,-0.7,1.8,2471.304,13.29,0.044,47.7
2023-05-09T04:28:03,42.805,6.029,0.019,0.01,0.0,102.0,103.0,101.0,13.4,1505.2,346.7,-0.8,1.8,2471.297,13.29,0.021,62.2
2023-05-09T04:31:03,42.805,6.029,0.036,0.025,-0.016,104.0,101.0,101.0,13.4,1505.2,319.4,-0.8,1.8,2471.297,13.29,0.043,55.2
2023-05-09T04:34:03,42.805,6.029,0.017,0.032,-0.014,101.0,103.0,100.0,13.4,1505.2,327.8,-0.7,1.8,2471.312,13.29,0.036,28.0
2023-05-09T04:37:03,42.805,6.029,0.028,0.026,0.004,103.0,102.0,101.0,13.4,1505.2,322.9,-0.8,1.8,2471.299,13.29,0.038,47.1
2023-05-09T04:40:03,42.805,6.029,0.033,0.016,0.004,101.0,102.0,101.0,13.4,1505.2,323.4,-0.8,1.8,2471.314,13.29,0.036,64.1
2023-05-09T04:43:03,42.805,6.029,0.02,0.019,-0.037,101.0,103.0,100.0,13.4,1505.2,331.2,-0.8,1.8,2471.316,13.29,0.027,46.5
2023-05-09T04:46:03,42.805,6.029,0.034,0.02,-0.032,100.0,101.0,101.0,13.3,1505.2,321.7,-0.7,1.8,2471.328,13.29,0.039,59.5
2023-05-09T04:49:03,42.805,6.029,0.01,0.027,-0.033,102.0,102.0,101.0,13.4,1505.2,331.6,-0.8,1.8,2471.321,13.29,0.028,20.3
2023-05-09T04:52:03,42.805,6.029,0.033,0.019,-0.022,100.0,103.0,101.0,13.3,1505.2,328.6,-0.8,1.8,2471.338,13.29,0.038,60.1
2023-05-09T04:55:03,42.805,6.029,0.026,0.01,-0.027,101.0,101.0,101.0,13.4,1505.2,316.8,-0.8,1.8,2471.336,13.29,0.027,69.0
2023-05-09T04:58:03,42.805,6.029,-0.005,0.027,-0.019,102.0,102.0,101.0,13.4,1505.2,327.5,-0.8,1.8,2471.273,13.29,0.027,349.5
2023-05-09T05:04:03,42.805,6.029,0.025,0.014,-0.028,101.0,101.0,100.0,13.4,1505.2,337.9,-0.8,1.8,2471.333,13.29,0.028,60.7
2023-05-09T05:07:03,42.805,6.029,0.014,0.043,0.009,102.0,102.0,101.0,13.3,1505.2,332.2,-0.8,1.8,2471.365,13.29,0.045,18.0
2023-05-09T05:10:03,42.805,6.029,0.035,0.009,-0.041,101.0,103.0,100.0,13.4,1505.2,323.8,-0.8,1.8,2471.347,13.29,0.036,75.6
2023-05-09T05:13:03,42.805,6.029,0.027,0.039,0.002,101.0,102.0,101.0,13.4,1505.2,325.2,-0.8,1.8,2471.343,13.29,0.047,34.7
2023-05-09T05:16:03,42.805,6.029,0.023,0.012,-0.032,103.0,101.0,100.0,13.4,1505.2,331.0,-0.8,1.8,2471.335,13.29,0.025,62.4
2023-05-09T05:19:03,42.805,6.029,0.004,0.029,-0.004,102.0,103.0,101.0,13.3,1505.2,325.0,-0.8,1.8,2471.346,13.29,0.029,7.8
2023-05-09T05:22:03,42.805,6.029,0.005,0.021,-0.028,101.0,102.0,101.0,13.3,1505.2,327.0,-0.8,1.8,2471.348,13.29,0.021,13.4
2023-05-09T05:25:03,42.805,6.029,0.022,0.015,-0.019,102.0,102.0,101.0,13.3,1505.2,328.6,-0.8,1.8,2471.36,13.29,0.026,55.7
2023-05-09T05:28:03,42.805,6.029,0.025,0.0,0.001,103.0,102.0,101.0,13.4,1505.2,345.1,-0.7,1.8,2471.318,13.29,0.025,90.0
2023-05-09T05:31:03,42.805,6.029,0.011,0.029,-0.007,102.0,102.0,101.0,13.4,1505.2,334.8,-0.8,1.9,2471.309,13.29,0.031,20.8
2023-05-09T05:34:03,42.805,6.029,0.036,0.02,-0.001,103.0,103.0,100.0,13.4,1505.2,338.2,-0.7,1.8,2471.36,13.29,0.041,60.9
2023-05-09T05:37:03,42.805,6.029,0.015,0.022,-0.023,103.0,102.0,100.0,13.3,1505.2,319.4,-0.7,1.8,2471.325,13.29,0.026,34.3
2023-05-09T05:40:03,42.805,6.029,0.035,-0.003,-0.022,103.0,101.0,102.0,13.4,1505.2,345.1,-0.7,1.8,2471.289,13.29,0.035,94.9
2023-05-09T05:43:03,42.805,6.029,0.032,0.024,0.012,103.0,103.0,100.0,13.4,1505.2,338.0,-0.8,1.8,2471.37,13.29,0.04,53.1
2023-05-09T05:46:03,42.805,6.029,0.014,0.018,-0.017,103.0,103.0,100.0,13.4,1505.2,345.4,-0.8,1.8,2471.321,13.29,0.022,37.9
2023-05-09T05:49:03,42.805,6.029,0.029,-0.009,-0.011,100.0,103.0,102.0,13.4,1505.2,337.3,-0.7,1.8,2471.347,13.29,0.03,107.2
2023-05-09T05:52:03,42.805,6.029,0.033,0.009,0.013,101.0,103.0,101.0,13.4,1505.2,344.6,-0.7,1.8,2471.317,13.29,0.034,74.7
2023-05-09T05:55:03,42.805,6.029,0.017,0.017,-0.023,101.0,103.0,101.0,13.4,1505.2,335.9,-0.7,1.8,2471.318,13.29,0.024,45.0
2023-05-09T05:58:03,42.805,6.029,0.008,0.028,0.006,103.0,103.0,100.0,13.4,1505.2,329.4,-0.8,1.8,2471.313,13.29,0.029,15.9
2023-05-09T06:04:03,42.805,6.029,0.018,0.037,0.0,102.0,102.0,101.0,13.4,1505.2,329.1,-0.8,1.8,2471.34,13.28,0.041,25.9
2023-05-09T06:07:03,42.805,6.029,0.028,0.022,-0.002,102.0,102.0,101.0,13.4,1505.2,340.9,-0.8,1.8,2471.354,13.28,0.035,51.8
2023-05-09T06:10:03,42.805,6.029,0.048,-0.007,-0.005,102.0,103.0,100.0,13.4,1505.2,345.7,-0.8,1.8,2471.364,13.29,0.048,98.3
2023-05-09T06:13:03,42.805,6.029,0.021,0.031,-0.014,102.0,102.0,100.0,13.4,1505.2,318.3,-0.8,1.8,2471.372,13.29,0.037,34.1
2023-05-09T06:16:03,42.805,6.029,0.017,0.016,-0.011,101.0,102.0,100.0,13.4,1505.2,324.9,-0.7,1.8,2471.343,13.29,0.023,46.7
2023-05-09T06:19:03,42.805,6.029,0.021,0.011,-0.029,101.0,103.0,100.0,13.4,1505.2,333.0,-0.8,1.8,2471.379,13.29,0.023,62.4
2023-05-09T06:22:03,42.805,6.029,0.038,0.008,-0.022,101.0,102.0,100.0,13.4,1505.2,338.8,-0.7,1.8,2471.336,13.29,0.038,78.1
2023-05-09T06:25:03,42.805,6.029,0.013,0.018,0.0,101.0,102.0,100.0,13.3,1505.2,333.9,-0.8,1.8,2471.335,13.29,0.022,35.8
2023-05-09T06:28:03,42.805,6.029,0.006,0.021,-0.015,101.0,103.0,100.0,13.4,1505.2,334.4,-0.8,1.8,2471.36,13.29,0.021,15.9
2023-05-09T06:31:03,42.805,6.029,0.016,0.027,-0.011,101.0,104.0,100.0,13.3,1505.2,325.7,-0.8,1.8,2471.376,13.29,0.031,30.7
2023-05-09T06:34:03,42.805,6.029,0.032,0.004,-0.026,103.0,103.0,100.0,13.4,1505.2,345.1,-0.8,1.8,2471.352,13.29,0.032,82.9
2023-05-09T06:37:03,42.805,6.029,0.022,0.028,0.012,102.0,103.0,101.0,13.4,1505.2,344.6,-0.7,1.8,2471.374,13.29,0.035,38.2
2023-05-09T06:40:03,42.805,6.029,0.037,0.023,0.027,101.0,102.0,101.0,13.4,1505.2,333.4,-0.8,1.8,2471.341,13.29,0.043,58.1
2023-05-09T06:43:03,42.805,6.029,0.008,0.036,-0.029,101.0,103.0,101.0,13.4,1505.2,325.7,-0.8,1.8,2471.345,13.29,0.036,12.5
2023-05-09T06:46:03,42.805,6.029,0.035,0.005,-0.014,102.0,103.0,99.0,13.4,1505.2,318.8,-0.8,1.8,2471.336,13.29,0.035,81.9
2023-05-09T06:49:03,42.805,6.029,0.02,0.032,-0.007,102.0,102.0,101.0,13.4,1505.2,316.2,-0.8,1.8,2471.372,13.29,0.037,32.0
2023-05-09T06:52:03,42.805,6.029,0.052,0.027,0.032,100.0,103.0,102.0,13.3,1505.2,344.2,-0.8,1.8,2471.346,13.29,0.058,62.6
2023-05-09T06:55:03,42.805,6.029,0.029,0.024,-0.011,101.0,104.0,100.0,13.4,1505.2,325.1,-0.8,1.8,2471.318,13.29,0.037,50.4
2023-05-09T06:58:03,42.805,6.029,0.026,0.031,-0.015,102.0,103.0,100.0,13.3,1505.2,329.2,-0.8,1.8,2471.36,13.29,0.04,40.0
2023-05-09T07:04:03,42.805,6.029,0.025,0.006,-0.011,101.0,103.0,101.0,13.3,1505.2,332.4,-0.7,1.8,2471.418,13.28,0.025,76.5
2023-05-09T07:07:03,42.805,6.029,0.037,0.005,-0.006,100.0,102.0,101.0,13.4,1505.2,337.3,-0.8,1.8,2471.39,13.28,0.037,82.3
2023-05-09T07:10:03,42.805,6.029,0.037,0.023,-0.003,102.0,103.0,101.0,13.4,1505.2,316.9,-0.8,1.8,2471.359,13.29,0.043,58.1
2023-05-09T07:13:03,42.805,6.029,0.04,0.019,-0.012,102.0,103.0,100.0,13.3,1505.2,317.7,-0.8,1.8,2471.375,13.29,0.044,64.6
2023-05-09T07:16:03,42.805,6.029,0.014,0.019,-0.006,102.0,103.0,101.0,13.4,1505.2,329.8,-0.8,1.8,2471.378,13.29,0.023,36.4
2023-05-09T07:19:03,42.805,6.029,0.026,0.031,-0.004,102.0,103.0,101.0,13.4,1505.2,318.8,-0.7,1.8,2471.371,13.29,0.04,40.0
2023-05-09T07:22:03,42.805,6.029,0.022,0.018,-0.021,100.0,102.0,102.0,13.4,1505.2,337.5,-0.7,1.8,2471.372,13.29,0.028,50.7
2023-05-09T07:25:03,42.805,6.029,0.005,0.032,-0.027,101.0,102.0,101.0,13.3,1505.2,332.3,-0.8,1.7,2471.399,13.29,0.032,8.9
2023-05-09T07:28:03,42.805,6.029,-0.001,0.042,0.004,101.0,104.0,100.0,13.4,1505.2,335.4,-0.8,1.8,2471.387,13.29,0.042,358.6
2023-05-09T07:31:03,42.805,6.029,0.002,0.039,-0.013,102.0,103.0,101.0,13.3,1505.2,323.3,-0.8,1.8,2471.369,13.29,0.039,2.9
2023-05-09T07:34:03,42.805,6.029,0.021,0.002,-0.053,101.0,103.0,101.0,13.4,1505.2,329.0,-0.8,1.8,2471.392,13.29,0.021,84.6
2023-05-09T07:37:03,42.805,6.029,0.031,0.02,-0.001,102.0,103.0,100.0,13.4,1505.2,346.7,-0.7,1.8,2471.373,13.29,0.036,57.2
2023-05-09T07:40:03,42.805,6.029,0.039,0.023,-0.015,102.0,102.0,101.0,13.3,1505.2,341.9,-0.7,1.8,2471.384,13.29,0.045,59.5
2023-05-09T07:43:03,42.805,6.029,0.04,0.023,-0.004,101.0,103.0,100.0,13.4,1505.2,338.2,-0.8,1.8,2471.393,13.29,0.046,60.1
2023-05-09T07:46:03,42.805,6.029,0.033,0.011,-0.024,102.0,104.0,101.0,13.4,1505.2,338.8,-0.8,1.8,2471.391,13.29,0.034,71.6
2023-05-09T07:49:03,42.805,6.029,0.031,0.021,0.001,101.0,104.0,100.0,13.4,1505.2,341.2,-0.8,1.8,2471.362,13.29,0.037,55.9
2023-05-09T07:52:03,42.805,6.029,0.032,0.03,0.026,102.0,104.0,100.0,13.3,1505.2,345.4,-0.8,1.8,2471.418,13.29,0.043,46.9
2023-05-09T07:55:03,42.805,6.029,-0.004,0.035,-0.023,100.0,105.0,99.0,13.3,1505.2,326.3,-0.7,1.9,2471.416,13.29,0.035,353.5
2023-05-09T07:58:03,42.805,6.029,0.017,0.033,0.033,102.0,104.0,99.0,13.4,1505.2,322.6,-0.8,1.8,2471.368,13.29,0.037,27.3
2023-05-09T08:04:03,42.805,6.029,0.027,0.025,0.009,102.0,102.0,100.0,13.3,1505.2,318.2,-0.7,1.8,2471.416,13.28,0.036,47.2
2023-05-09T08:07:03,42.805,6.029,0.033,0.038,-0.006,101.0,103.0,100.0,13.4,1505.2,316.3,-0.7,1.8,2471.428,13.28,0.05,41.0
2023-05-09T08:10:03,42.805,6.029,0.024,0.02,0.003,102.0,102.0,100.0,13.4,1505.2,334.4,-0.8,1.8,2471.45,13.28,0.031,50.2
2023-05-09T08:13:03,42.805,6.029,0.048,0.025,0.011,100.0,104.0,101.0,13.4,1505.2,332.0,-0.7,1.8,2471.379,13.29,0.054,62.5
2023-05-09T08:16:03,42.805,6.029,0.032,0.02,-0.012,100.0,103.0,101.0,13.4,1505.2,333.4,-0.7,1.8,2471.415,13.29,0.037,58.0
2023-05-09T08:19:03,42.805,6.029,0.022,0.038,0.002,102.0,102.0,101.0,13.3,1505.2,322.5,-0.8,1.8,2471.413,13.29,0.043,30.1
2023-05-09T08:22:03,42.805,6.029,-0.004,0.027,-0.005,101.0,102.0,101.0,13.4,1505.2,328.8,-0.7,1.8,2471.372,13.29,0.027,351.6
2023-05-09T08:25:03,42.805,6.029,0.03,0.018,-0.001,101.0,103.0,100.0,13.4,1505.2,333.9,-0.8,1.8,2471.387,13.29,0.034,59.0
2023-05-09T08:28:03,42.805,6.029,0.025,0.0,-0.045,101.0,103.0,100.0,13.3,1505.2,325.0,-0.8,1.9,2471.404,13.29,0.025,90.0
2023-05-09T08:31:03,42.805,6.029,0.035,0.008,0.008,100.0,104.0,101.0,13.3,1505.2,334.4,-0.7,1.8,2471.448,13.29,0.035,77.1
2023-05-09T08:34:03,42.805,6.029,0.017,0.026,-0.007,101.0,103.0,100.0,13.3,1505.2,326.0,-0.8,1.8,2471.406,13.29,0.031,33.2
2023-05-09T08:37:03,42.805,6.029,0.021,0.029,0.028,102.0,103.0,100.0,13.3,1505.2,321.7,-0.7,1.8,2471.444,13.29,0.035,35.9
2023-05-09T08:40:03,42.805,6.029,0.037,0.038,0.008,100.0,104.0,101.0,13.3,1505.2,318.6,-0.8,1.8,2471.44,13.29,0.053,44.2
2023-05-09T08:43:03,42.805,6.029,0.006,0.037,-0.022,102.0,104.0,100.0,13.3,1505.2,341.1,-0.8,1.8,2471.437,13.29,0.037,9.2
2023-05-09T08:46:03,42.805,6.029,0.038,0.007,-0.037,102.0,106.0,100.0,13.4,1505.2,328.2,-0.8,1.8,2471.417,13.29,0.038,79.6
2023-05-09T08:49:03,42.805,6.029,0.046,0.022,0.02,102.0,104.0,100.0,13.4,1505.2,332.1,-0.8,1.8,2471.39,13.29,0.05,64.4
2023-05-09T08:52:03,42.805,6.029,0.039,0.016,-0.007,102.0,104.0,101.0,13.3,1505.2,345.7,-0.7,1.8,2471.408,13.29,0.042,67.7
2023-05-09T08:55:03,42.805,6.029,0.044,0.027,-0.002,102.0,105.0,100.0,13.3,1505.2,337.9,-0.8,1.8,2471.44,13.29,0.051,58.5
2023-05-09T08:58:03,42.805,6.029,0.03,0.011,-0.032,102.0,104.0,100.0,13.4,1505.2,331.3,-0.7,1.8,2471.444,13.29,0.031,69.9
2023-05-09T09:04:03,42.805,6.029,0.017,0.04,-0.018,101.0,104.0,101.0,13.4,1505.2,320.5,-0.8,1.8,2471.439,13.28,0.043,23.0
2023-05-09T09:07:03,42.805,6.029,0.038,0.041,0.007,102.0,105.0,101.0,13.4,1505.2,325.7,-0.8,1.8,2471.457,13.28,0.055,42.8
2023-05-09T09:10:03,42.805,6.029,0.035,0.03,-0.02,102.0,105.0,101.0,13.4,1505.2,327.3,-0.8,1.8,2471.428,13.28,0.046,49.4
2023-05-09T09:13:03,42.805,6.029,0.049,0.024,-0.009,101.0,105.0,100.0,13.3,1505.2,328.8,-0.7,1.8,2471.448,13.28,0.054,63.9
2023-05-09T09:16:03,42.805,6.029,0.037,0.019,-0.023,101.0,105.0,100.0,13.4,1505.2,325.4,-0.8,1.8,2471.414,13.29,0.041,62.8
2023-05-09T09:19:03,42.805,6.029,0.026,0.011,-0.033,103.0,104.0,100.0,13.4,1505.2,318.7,-0.8,1.8,2471.419,13.29,0.028,67.1
2023-05-09T09:22:03,42.805,6.029,0.008,0.036,-0.038,101.0,106.0,100.0,13.4,1505.2,339.5,-0.8,1.8,2471.406,13.29,0.036,12.5
2023-05-09T09:25:03,42.805,6.029,0.053,0.017,0.016,101.0,106.0,100.0,13.3,1505.2,336.9,-0.8,1.8,2471.402,13.29,0.055,72.2
2023-05-09T09:28:03,42.805,6.029,0.009,0.032,-0.028,101.0,105.0,102.0,13.4,1505.2,334.3,-0.8,1.8,2471.356,13.29,0.033,15.7
2023-05-09T09:31:03,42.805,6.029,0.033,0.039,0.018,102.0,104.0,101.0,13.4,1505.2,327.5,-0.8,1.8,2471.385,13.29,0.051,40.2
2023-05-09T09:34:03,42.805,6.029,0.056,-0.016,-0.05,101.0,106.0,102.0,13.3,1505.2,344.8,-0.7,1.8,2471.418,13.29,0.058,105.9
2023-05-09T09:37:03,42.805,6.029,0.032,0.025,0.016,103.0,105.0,101.0,13.3,1505.2,327.0,-0.8,1.8,2471.401,13.29,0.04,52.0
2023-05-09T09:40:03,42.805,6.029,0.033,0.006,-0.028,102.0,104.0,101.0,13.4,1505.2,328.8,-0.7,1.8,2471.366,13.29,0.033,79.7
2023-05-09T09:43:03,42.805,6.029,0.029,0.028,0.018,101.0,104.0,101.0,13.4,1505.2,322.4,-0.8,1.9,2471.364,13.29,0.04,46.0
2023-05-09T09:46:03,42.805,6.029,0.028,0.01,-0.018,100.0,106.0,101.0,13.4,1505.2,341.9,-0.8,1.8,2471.373,13.29,0.029,70.4
2023-05-09T09:49:03,42.805,6.029,0.027,0.023,-0.006,100.0,106.0,100.0,13.4,1505.2,333.4,-0.8,1.8,2471.395,13.29,0.035,49.6
2023-05-09T09:52:03,42.805,6.029,0.056,0.0,0.009,101.0,105.0,101.0,13.4,1505.2,337.5,-0.7,1.8,2471.389,13.29,0.056,90.0
2023-05-09T09:55:03,42.805,6.029,0.026,0.001,-0.042,102.0,106.0,100.0,13.4,1505.2,331.9,-0.8,1.8,2471.389,13.29,0.026,87.8
2023-05-09T09:58:03,42.805,6.029,-0.031,0.016,-0.051,101.0,106.0,101.0,13.4,1505.2,321.2,-0.7,1.8,2471.38,13.29,0.034,297.3
2023-05-09T10:04:03,42.805,6.029,0.021,0.006,-0.032,101.0,106.0,101.0,13.3,1505.2,325.1,-0.8,1.8,2471.44,13.28,0.021,74.1
2023-05-09T10:07:03,42.805,6.029,0.049,0.005,0.008,101.0,105.0,101.0,13.3,1505.2,336.0,-0.8,1.8,2471.421,13.28,0.049,84.2